Zurück zum Katalog

DELTA 1 DEB

AktivLEO
NORAD 20012·DEBRIS·🇺🇸 United States

Gestartet Jul 29, 1976 von Vandenberg Space Force Base

Loading…

Nächste Überflüge (nächste 24 Stunden)

TLE

AktuellSource: Space-Track

Epoche: Sep 13, 2026, 04:11 UTC

1 20012U 76077FM  26256.17470281  .00000703  00000-0  27364-2 0  9997
2 20012 102.1066 333.3596 0086041 175.8541 212.9044 12.92722129602316

Verfolge DELTA 1 DEB in Echtzeit mit AllMySat

Download on the App Store